Presure
367 223 203 223 202 180 149 148 189 165 167 151 154 181 180 181 139 100 100 95 97 97 95 92 96 96 96 94 91 90 92 93 95 94 89 90 93 94 97 96 92 97 101 101
340 191 219 230 210 193 194 184 155 171 194 170 152 150 160 176 188 181 181 150 114 63 74 174 98 78 89 68 74 99 97 100 98 99 95 94 96 95 98 102 103 103 115 202
341 252 149 218 209 207 194 184 183 166 164 172 158 152 110 156 185 171 174 179 121 179 180 145 155 140 94 152 180 170 133 153 171 165 144 144 178 186 189 195 198 201 191 193
329 289 231 222 211 207 196 190 184 181 180 178 196 152 151 157 154 149 165 173 151 152 152 159 159 162 155 158 160 160 166 170 175 172 178 179 184 177 197 194 190 180 89 188
331 224 226 223 214 136 210 198 161 185 185 185 183 188 174 161 154 148 177 162 153 166 173 155 163 166 167 167 167 165 162 175 176 174 179 189 185 188 185 195 171 184 185 197
332 346 236 221 220 208 205 208 202 192 193 189 185 174 176 172 166 166 173 157 164 167 166 188 160 157 162 171 171 169 171 170 169 173 190 192 190 195 197 182 186 184 166 188
338 361 262 178 219 215 214 211 205 198 198 192 195 174 181 175 179 173 179 180 159 165 169 175 174 165 162 161 173 181 181 183 182 178 187 199 188 173 191 171 183 199 164 224
350 373 300 238 222 208 213 216 204 194 199 198 188 186 181 183 176 170 178 177 163 160 168 166 166 181 178 177 179 181 182 185 189 193 184 185 196 199 174 192 196 194 226 225
355 367 307 255 227 217 205 158 207 213 201 126 115 172 191 190 187 184 181 189 185 184 181 178 169 183 181 184 170 188 194 201 201 203 191 191 179 186 185 151 221 220 241 266
369 358 281 262 248 221 209 207 158 213 211 207 182 203 199 198 194 190 189 189 190 180 186 189 182 183 189 193 133 184 180 183 178 161 186 173 142 166 201 229 190 245 248 302
375 301 406 285 258 233 216 207 206 208 202 216 206 205 207 208 202 201 202 199 192 196 203 201 195 202 187 185 181 188 201 175 180 184 154 201 217 217 201 239 255 303 302 237
280 386 366 382 143 186 235 217 214 204 203 206 201 155 147 205 127 206 136 157 205 165 197 195 164 189 199 172 177 182 173 153 169 207 221 231 224 230 249 293 313 273 228 263
242 268 361 385 374 262 254 163 225 214 205 188 202 195 186 194 198 208 158 182 191 193 156 167 191 177 171 177 162 209 187 210 148 198 226 229 239 272 308 249 268 262 307 255
238 223 230 272 378 380 267 245 166 221 169 196 171 204 159 167 179 181 141 168 171 171 157 175 176 202 185 222 177 145 171 188 169 180 235 291 314 249 242 236 314 315 311 289
219 233 243 208 239 275 380 359 258 242 234 236 224 163 152 179 209 152 173 210 156 207 195 144 161 220 198 184 176 187 241 255 264 311 296 231 230 226 261 247 268 286 272 252
205 207 221 227 198 199 230 243 273 304 237 247 243 236 234 156 183 228 229 155 162 162 234 237 195 176 176 315 317 305 297 247 219 220 243 284 271 261 239 228 240 244 234 231
212 196 221 182 216 236 250 211 196 220 237 249 259 266 270 276 278 247 277 277 209 161 279 170 186 250 248 236 266 270 259 250 246 239 227 226 225 220 223 228 228 209 210 208
159 190 174 203 162 215 213 231 251 234 195 193 207 212 221 222 222 223 221 222 225 229 231 231 232 231 231 227 225 225 224 222 220 222 223 210 206 196 203 180 186 201 192 190
122 147 170 158 178 210 196 195 212 207 251 239 234 201 198 199 198 212 214 218 215 216 212 213 212 210 207 212 213 189 215 215 208 206 204 209 211 214 212 201 209 189 210 208
139 161 163 106 174 140 117 221 146 107 209 218 194 236 235 219 212 196 194 194 207 209 210 212 215 214 203 217 218 219 205 202 213 221 209 195 200 207 201 140 205 215 200 192
206 154 176 151 185 173 130 204 180 154 180 216 202 232 183 146 203 180 220 161 173 217 226 176 192 201 198 192 183 200 204 201 204 201 213 198 204 206 208 215 156 207 215 212
163 168 204 186 143 176 179 169 215 186 200 165 166 159 206 178 178 151 166 222 198 238 234 221 221 203 210 234 229 216 207 203 182 202 216 217 214 219 218 216 215 208 207 195
203 201 198 216 155 129 155 198 158 215 175 180 208 161 162 168 202 188 157 198 207 231 137 166 255 234 237 237 119 216 231 193 205 189 193 142 215 209 219 214 214 210 207 195
191 185 181 182 212 167 167 183 194 214 221 165 220 210 214 175 216 174 222 205 172 238 162 253 221 155 198 242 179 152 154 242 242 238 187 249 244 256 231 240 231 244 229 255
154 187 154 186 170 135 172 176 229 192 152 223 188 220 230 205 171 202 236 179 226 201 245 246 208 170 181 224 175 214 216 254 215 169 258 259 264 266 266 291 264 281 280 256
188 188 193 200 210 216 219 207 215 216 223 155 225 224 181 226 228 177 238 237 212 190 172 241 224 246 188 238 276 273 279 241 287 296 280 290 304 299 278 292 285 297 289 278
Wind_Speed
35 90 72 85 78 70 60 46 78 54 50 41 35 59 56 57 57 57 58 55 55 53 48 43 51 50 50 48 48 47 50 52 54 52 45 49 54 58 61 60 55 64 69 69
44 66 85 91 84 77 76 71 48 57 72 54 41 42 29 48 58 56 54 43 32 5 19 51 55 26 39 10 22 61 60 62 61 61 58 57 61 62 67 69 69 72 72 73
36 93 46 86 80 81 78 66 63 58 54 57 41 37 19 31 58 41 45 51 29 53 53 60 56 56 57 51 54 51 58 58 60 58 68 70 70 72 73 74 73 73 73 74
41 96 92 89 80 80 78 69 68 74 66 60 71 39 39 36 37 40 41 50 41 41 43 41 43 48 49 50 51 52 55 59 64 65 68 70 73 73 74 73 72 72 28 77
31 28 85 85 79 28 83 75 51 73 69 67 60 61 52 41 39 42 55 45 43 46 54 48 47 50 54 55 56 56 58 65 67 68 72 75 76 74 74 74 73 76 77 79
31 35 88 82 84 81 76 80 81 71 68 64 60 48 55 49 48 50 57 48 49 51 51 65 48 50 53 59 60 61 65 66 68 72 76 77 76 77 76 77 78 75 74 76
19 28 91 58 80 79 79 79 75 70 69 67 69 50 63 54 61 57 61 61 46 50 53 57 61 54 55 59 66 70 73 74 74 75 77 77 75 66 77 66 79 84 65 86
10 25 79 81 81 72 76 80 74 63 68 72 70 66 65 69 62 52 62 63 46 47 54 52 54 68 68 67 70 72 74 75 77 77 73 74 79 80 75 81 84 80 87 84
3 20 73 84 78 76 65 40 66 75 70 36 35 44 72 70 69 67 65 69 68 68 67 63 57 67 71 72 62 75 76 77 79 78 75 79 76 80 81 69 86 82 89 88
11 13 31 84 78 75 70 67 43 71 74 72 62 69 72 73 71 70 68 69 69 57 68 68 67 67 74 75 58 67 69 73 75 68 80 74 63 73 80 86 74 89 83 70
20 6 8 80 78 72 70 67 67 69 63 70 67 68 72 72 71 71 72 71 66 70 73 73 75 74 69 70 71 70 74 72 81 80 65 85 88 86 79 90 91 78 63 63
57 15 10 10 29 46 70 68 69 59 60 62 59 48 47 69 46 72 50 57 70 62 72 75 67 73 76 73 75 76 77 62 66 84 86 89 86 87 90 88 72 64 64 52
43 45 20 6 20 73 73 33 68 67 60 51 57 61 55 61 64 70 57 60 68 72 60 66 77 76 75 74 65 83 79 82 64 81 87 87 90 85 69 69 63 60 50 56
45 28 25 33 4 11 66 68 45 62 47 58 48 66 56 56 60 64 52 62 65 66 56 69 70 81 72 83 69 60 70 77 71 72 90 84 63 66 67 66 37 35 34 33
31 47 33 12 18 19 3 27 65 69 68 69 67 52 51 58 70 51 57 73 57 79 75 52 63 84 78 73 70 73 90 88 90 71 62 69 67 68 58 53 44 29 26 30
15 13 29 34 3 3 11 4 5 9 55 73 72 68 70 56 63 81 82 62 62 60 83 82 76 72 71 66 61 60 59 64 65 66 65 50 48 47 51 50 45 39 38 39
17 18 23 18 19 27 20 13 17 19 18 20 24 30 33 33 34 42 39 43 57 66 46 70 67 56 56 60 51 49 51 51 51 52 54 53 52 52 50 50 48 49 49 49
29 17 24 14 25 14 11 21 24 23 30 32 36 39 42 44 44 46 49 51 52 52 53 54 55 56 56 59 59 59 60 61 62 60 58 62 61 58 59 54 54 57 56 56
28 29 32 33 33 31 30 28 25 26 33 30 38 44 47 49 51 52 54 56 60 61 63 64 65 66 66 67 67 65 68 67 68 68 70 68 67 65 66 64 65 60 65 63
32 38 44 28 26 35 30 35 43 28 34 34 48 41 44 55 57 61 60 61 64 65 66 68 71 72 72 73 74 75 74 74 74 73 72 71 71 72 72 55 71 71 68 65
38 44 49 42 37 40 39 41 43 48 57 41 42 45 58 50 55 58 64 60 65 68 69 65 72 75 76 74 69 80 81 79 79 77 83 76 78 80 78 79 60 77 78 77
50 46 50 51 49 45 52 59 47 48 53 63 59 58 56 66 54 58 60 66 63 68 73 78 78 75 76 84 88 88 89 86 65 82 92 91 90 91 91 89 87 82 81 72
56 58 57 63 50 49 61 52 66 54 64 67 55 60 65 72 67 73 55 76 67 73 67 71 68 80 83 85 46 86 85 76 84 62 72 56 93 93 95 96 97 94 90 73
70 69 67 63 65 58 54 59 61 61 61 78 63 67 65 79 65 58 69 70 60 74 54 75 71 67 84 85 64 65 70 94 91 96 68 96 97 95 95 104 106 104 105 102
75 79 70 68 67 52 66 64 74 67 72 71 76 70 75 72 85 77 77 69 79 73 80 81 71 62 67 82 67 78 79 97 90 65 97 98 99 100 99 98 96 97 99 100
89 90 85 79 79 79 79 78 76 80 80 66 80 79 80 78 78 70 81 82 77 74 63 85 85 88 68 88 94 91 90 87 97 99 96 97 98 96 95 94 94 98 96 96
Wind_Direction
200 203 205 204 205 212 228 237 215 226 226 221 217 231 235 233 241 249 250 254 255 255 257 263 261 263 267 270 272 275 275 275 276 279 286 287 286 288 287 289 297 292 288 290
193 204 206 203 205 210 214 219 229 231 224 229 224 237 223 240 234 240 241 248 255 287 280 260 266 284 272 300 288 273 275 276 278 278 281 284 284 286 284 283 284 284 287 295
202 198 204 205 207 211 216 220 220 231 231 227 225 233 236 234 239 253 249 248 249 251 255 260 263 267 272 273 274 283 282 286 289 289 284 284 288 288 289 288 290 293 294 293
204 196 203 205 206 210 216 218 218 228 231 235 230 227 231 237 237 241 245 250 244 249 253 262 264 263 264 274 277 279 288 289 289 287 286 286 288 287 288 290 293 293 290 294
209 202 204 205 208 226 215 216 223 230 230 232 237 236 245 241 240 243 253 254 249 263 264 258 273 277 280 283 286 288 283 285 285 284 285 285 286 287 291 293 293 290 294 298
215 201 203 204 207 214 218 218 221 229 232 236 240 244 246 246 247 253 252 252 260 264 268 259 272 272 284 284 284 284 284 283 282 283 285 285 288 290 292 289 290 293 295 297
209 199 202 210 211 215 217 221 225 230 233 236 236 244 246 251 250 255 256 254 255 265 271 271 275 279 281 280 281 278 279 280 282 282 286 288 287 289 290 289 292 294 292 299
223 200 199 206 210 219 220 222 226 232 232 234 240 242 248 248 251 254 258 259 258 262 273 275 273 271 277 279 278 279 281 281 283 286 286 285 289 288 288 290 291 297 298 301
153 195 199 208 211 218 226 230 229 229 234 246 252 241 245 249 252 257 264 260 265 268 272 274 275 276 275 277 275 279 280 282 283 284 284 284 284 285 288 293 294 296 302 304
77 192 203 210 211 216 224 229 236 232 234 238 241 242 246 250 253 258 263 265 266 272 272 271 274 276 277 275 279 278 276 277 275 279 279 282 288 289 291 293 294 300 300 300
61 159 114 205 215 218 224 230 234 237 242 238 245 246 247 249 254 258 260 264 266 268 267 268 272 271 274 272 273 276 280 275 273 277 286 283 288 289 291 296 299 297 295 297
40 62 197 201 247 234 225 229 233 243 245 249 254 254 256 257 254 260 260 263 266 250 270 271 260 272 274 262 264 267 268 284 285 283 287 291 290 292 296 297 294 292 294 291
35 38 53 149 220 225 229 241 234 239 247 254 254 259 257 261 265 263 248 266 267 270 270 268 269 262 264 268 279 277 274 282 286 284 287 289 293 293 293 296 296 294 284 283
40 44 33 41 123 222 232 238 250 245 240 242 244 259 250 260 261 253 269 249 262 270 269 269 272 270 269 279 277 282 282 279 281 282 288 292 291 291 295 297 296 292 281 265
41 34 35 49 20 40 231 242 244 247 252 253 253 256 261 263 265 266 268 263 272 264 267 278 277 274 275 275 278 280 280 283 285 286 285 289 289 292 290 294 293 281 268 266
21 7 33 29 278 241 321 293 325 281 247 252 255 258 258 261 260 264 266 269 272 273 272 274 271 274 276 281 281 283 283 284 283 284 288 284 283 286 290 294 292 287 287 284
7 337 8 260 15 16 0 272 254 260 253 256 260 265 267 266 269 268 271 271 270 271 272 273 275 279 280 277 284 283 282 284 284 286 285 287 288 288 290 292 290 289 288 286
284 309 288 266 277 325 325 358 334 284 258 259 267 266 260 259 259 261 263 266 267 270 272 274 275 277 278 278 278 280 280 281 281 282 281 284 286 285 288 283 289 286 289 290
285 271 272 278 274 318 270 274 317 304 323 284 271 266 268 267 266 265 265 266 267 268 270 271 272 273 275 275 275 280 276 276 279 279 281 281 281 279 280 280 281 287 280 280
283 265 282 262 300 278 282 323 274 281 312 276 274 288 269 267 269 271 268 268 270 270 271 272 272 273 276 274 274 274 279 281 278 276 278 282 281 280 281 281 281 279 281 283
292 277 269 274 286 279 275 292 287 271 274 295 295 304 269 278 272 270 267 272 273 268 268 274 273 274 274 276 279 280 280 280 279 280 277 282 281 281 280 277 278 279 276 278
273 276 291 278 270 278 270 283 306 286 292 279 272 280 291 277 283 272 270 277 275 274 270 266 267 273 274 269 268 272 276 278 285 280 276 276 278 274 274 276 277 280 281 281
289 285 286 296 274 266 285 288 287 302 265 274 284 275 285 283 284 274 271 279 274 277 281 276 281 276 274 273 274 270 273 274 281 289 288 283 275 281 274 278 280 282 284 284
283 284 282 284 289 274 277 278 281 294 296 278 295 294 292 275 290 271 287 287 282 286 266 289 277 287 284 277 285 287 280 275 274 273 284 275 275 277 273 272 272 272 275 272
275 284 270 282 275 277 282 278 302 293 286 294 287 290 298 290 276 291 294 286 285 288 290 288 278 283 281 284 288 285 274 277 282 275 280 280 280 279 278 277 274 274 273 271
280 281 281 283 288 291 293 289 293 297 297 289 295 294 287 294 295 282 296 293 291 288 276 287 285 285 278 280 282 280 277 278 277 277 278 278 276 276 277 276 277 277 275 274